Location: Gleizolles
(44.4833°N, 6.7667°E)
Time: 15:09:38
(UTC+00:00)

deb Explorer IX - Pass Details

Date: 28 June 2024
Orbit: 510 x 878 km, 38.7° (Epoch: 21 July)

Event Time Altitude Azimuth Distance (km) Brightness Sun altitude
Rises 10:55:11 0° 263° (W) 2,914 ? 67.1°
Reaches altitude 10° 10:58:56 10° 232° (SW) 2,100 ? 67.4°
Maximum altitude 11:00:43 12° 210° (SSW) 2,016 ? 67.5°
Drops below altitude 10° 11:02:35 10° 189° (S) 2,191 ? 67.7°
Sets 11:06:44 0° 159° (SSE) 3,214 ? 67.9°
